www.pogodaiklimat.ru

Погода и климат >> Архив погоды >> Португалия >> Виана-ду-Каштелу


ПОГОДА в Виана-ду-Каштелу

  • Прогноз погоды в Виана-ду-Каштелу
  • Монитор погоды в Виана-ду-Каштелу

АРХИВ ПОГОДЫ в Виана-ду-Каштелу

Время (UTC), дата Ветер
(напр.,м/с)
 
Видим.   Явления Облачность Т
(С)
Тd
(С)
f
(%)
Тe
(С)
Тes
(С)
Комфортность P
(гПа)
Po
(гПа)
Тmin
(С)
Tmax
(С)
R
(мм)
R24
(мм)
S
(см)
06 12.08 С 0 н/о н/о +11.4 +11.2 99 +11 +11 1023.7 1017.9 +11.1
09 12.08 16 км н/о +19.3 +13.7 70 1024.3 1018.6
12 12.08 18 км н/о +21.8 +14.7 64 1023.6 1018.0
15 12.08 С 0 н/о н/о +22.3 +15.8 67 +26 +26 жарко 1022.1 1016.4
18 12.08 С 0 н/о н/о +21.6 +14.4 64 +25 +25 комфорт 1021.5 1015.9 +23.9
21 12.08 С 0 н/о н/о +17.5 +12.6 73 +18 +18 1022.8 1017.0
00 13.08 С 0 н/о н/о +14.1 +11.6 85 +14 +14 1022.6 1016.8
03 13.08 С 0 н/о н/о +13.7 +11.0 84 +13 +13 1021.4 1015.6
06 13.08 С 0 н/о н/о +12.1 +10.8 92 +11 +11 1021.9 1016.1 +11.3
09 13.08 18 км н/о +19.5 +11.9 61 1022.5 1016.8
12 13.08 18 км н/о +20.8 +13.4 63 1022.2 1016.6
15 13.08 С 0 н/о н/о +21.8 +15.6 68 +25 +25 комфорт 1021.4 1015.8
18 13.08 С 0 н/о н/о +20.5 +14.5 68 +23 +23 комфорт 1021.0 1015.4 +22.5
21 13.08 С 0 н/о н/о +16.4 +11.2 71 +16 +16 1021.9 1016.1
00 14.08 С 0 н/о н/о +15.1 +11.9 81 +15 +15 1021.8 1016.0
03 14.08 С 0 н/о н/о +13.8 +12.2 90 +13 +13 1021.9 1016.2
06 14.08 С 0 н/о н/о +13.5 +12.6 94 +13 +13 1021.6 1015.8 +12.6
09 14.08 18 км н/о +20.6 +14.5 68 1022.2 1016.5
12 14.08 18 км н/о +22.5 +17.0 71 1022.4 1016.8
15 14.08 С 0 н/о н/о +23.4 +18.8 75 +30 +30 очень
душно
1021.5 1015.9
18 14.08 С 0 н/о н/о +21.5 +18.8 85 +26 +26 душно 1020.9 1015.2 +24.3
21 14.08 С 0 н/о н/о +18.4 +18.2 99 +19 +19 1021.7 1016.0
00 15.08 С 0 н/о н/о +16.9 +16.7 99 +17 +17 1022.1 1016.3
03 15.08 С 0 н/о н/о +16.2 +16.0 99 +16 +16 1020.8 1015.1
06 15.08 С 0 н/о н/о +16.2 +16.2 100 +16 +16 1021.0 1015.3 +15.6
09 15.08 С 0 н/о н/о +20.8 +17.3 80 +24 +24 комфорт 1021.8 1016.1
12 15.08 С 0 н/о н/о +22.8 +16.4 67 +27 +27 душно 1021.4 1015.7
15 15.08 С 0 н/о н/о +23.9 +16.2 62 +27 +27 жарко 1020.3 1014.7
18 15.08 С 0 н/о н/о +20.9 +16.6 76 +24 +24 комфорт 1019.6 1013.9 +24.4
21 15.08 С 0 н/о н/о +18.9 +16.1 84 +20 +20 1020.2 1014.5
00 16.08 С 0 н/о н/о +17.5 +16.1 91 +17 +17 1019.9 1014.2
03 16.08 С 0 н/о н/о +15.9 +15.1 95 +16 +16 1019.4 1013.6
06 16.08 С 0 н/о н/о +13.9 +13.7 99 +13 +13 1019.7 1013.9 +13.8
09 16.08 14 км н/о +20.2 +14.9 72 1019.7 1014.1
12 16.08 20 км н/о +22.2 +16.6 71 1019.9 1014.3
15 16.08 С 0 н/о н/о +22.6 +17.1 71 +27 +27 душно 1019.6 1014.0
18 16.08 С 0 н/о н/о +20.9 +18.0 83 +25 +25 комфорт 1018.8 1013.2 +23.4
21 16.08 С 0 н/о н/о +18.7 +17.0 90 +20 +20 1019.5 1013.9
00 17.08 С 0 н/о н/о +16.6 +16.0 96 +16 +16 1019.3 1013.6
03 17.08 С 0 н/о н/о +15.8 +15.4 97 +16 +16 1018.5 1012.8
06 17.08 С 0 н/о н/о +17.8 +17.0 95 +18 +18 1018.2 1012.5 +15.3
09 17.08 С 0 н/о н/о +22.9 +18.4 76 +29 +29 очень
душно
1017.9 1012.3
12 17.08 С 0 н/о н/о +22.3 +19.0 82 +28 +28 душно 1017.6 1012.0
15 17.08 С 0 н/о н/о +23.7 +19.2 76 +29 +29 душно 1016.7 1011.1
18 17.08 С 0 н/о н/о +22.2 +19.8 86 +28 +28 душно 1016.0 1010.4 +25.4
21 17.08 С 0 н/о н/о +18.7 +18.2 97 +20 +20 1016.3 1010.7
00 18.08 С 0 н/о н/о +20.1 +19.8 98 +24 +24 комфорт 1015.6 1010.0
03 18.08 С 0 н/о н/о +20.3 +19.6 96 +24 +24 комфорт 1014.1 1008.5
06 18.08 С 0 н/о н/о +19.4 +19.4 100 +22 +22 комфорт 1013.6 1007.9 +18.6 2
09 18.08 С 0 н/о н/о +18.2 +18.0 99 +19 +19 1015.6 1009.9 0.5
12 18.08 С 0 н/о н/о +20.8 +17.0 79 +24 +24 комфорт 1016.9 1011.2
15 18.08 С 0 н/о н/о +21.7 +14.9 65 +25 +25 комфорт 1017.4 1011.8
18 18.08 С 0 н/о н/о +20.2 +13.8 67 +22 +22 комфорт 1017.6 1012.0 +22.8
21 18.08 С 0 н/о н/о +16.6 +13.5 82 +16 +16 1018.9 1013.2
00 19.08 С 0 н/о н/о +15.5 +13.1 86 +15 +15 1018.9 1013.1
03 19.08 С 0 н/о н/о +14.9 +12.8 87 +15 +15 1018.3 1012.6

 

Местоположение метеостанции Виана-ду-Каштелу (Португалия): широта 41.63 долгота -8.80 высота над уровнем моря 48 м.

В архиве по умолчанию представлена погода в Виана-ду-Каштелу за последнюю неделю. Архивные данные за месяц целиком и за предыдущие месяцы, начиная с января 2011 года, Вы можете получить, выбрав интересующий диапазон дат из раскрывающегося списка и нажав кнопку "Ввод!".


*Определитесь, кто Вы:
робот инопланетянин человек

Внимание! Время в таблицах - всемирное. Для получения местного времени необходимо прибавить поправку, которая равна 0 ч.

Смотрите также архив погоды в соседних городах и на ближайших метеорологических станциях:

Погода в Порту (Португалия) (46 км)
Погода в Виго (Испания) (68 км)
Погода в Оваре (Португалия) (80 км)
Погода в Понтеведре (Испания) (90 км)
Погода в Вила-Реале (Португалия) (99 км)
Погода в Хинсо-де-Лимии (Испания) (102 км)
Погода в Карбальино (Испания) (106 км)
Погода в Оренсе (Испания) (109 км)
Погода в Падроне (Испания) (124 км)
Погода в Визеу (Португалия) (127 км)

Пояснения к столбцам:

Ветер - указаны скорость ветра в м/с - средняя за 10 мин, порывы в срок и между сроками (в фигурных скобках) и направление, откуда дует ветер: С - северный, СВ - северо-восточный, В - восточный, ЮВ - юго-восточный, Ю - южный, ЮЗ - юго-западный, З - западный, СЗ - северо-западный.
Видимость - горизонтальная дальность видимости в метрах или километрах. При видимости от 1 до 10 км при отсутствии осадков обычно наблюдается дымка, при ухудшении видимости до 1 км и менее - туман. В сухую погоду видимость может ухудшаться дымом, пылью или мглою.
Явления - указаны атмосферные явления, наблюдавшиеся в срок или в последний час перед сроком; фигурными скобками обозначены явления, наблюдавшиеся между сроками (за 1-3 часа до срока); квадратными скобками обозначены град или гололедные отложения с указанием их диаметра в мм.
Облачность - указаны через наклонную черту общая и нижняя облачность в баллах и высота нижней границы облаков в метрах; квадратными скобками обозначены формы облаков: Ci - перистые, Cs - перисто-слоистые, Cc - перисто-кучевые, Ac - высококучевые, As - высокослоистые, Sc - слоисто-кучевые, Ns - слоисто-дождевые, Cu - кучевые, Cb - кучево-дождевые. Подробнее классификацию облаков см. в Атласе облаков (PDF).
T - Температура воздуха - температура, измеренная на высоте 2 м над землей.
Td - Температура точки росы - температура, при понижении до которой содержащийся в воздухе водяной пар достигнет насыщения.
f - Относительная влажность воздуха - влажноcть воздуха, измеренная на высоте 2 м над землей.
Te - Эффективная температура - температура, которую ощущает одетый по сезону человек в тени. Характеристика душности погоды. При расчете учитывается влияние влажности воздуха и скорости ветра на теплоощущения человека.
Tes - Эффективная температура на солнце - температура, которую ощущает человек, с поправкой на солнечный нагрев. Характеристика знойности погоды. Зависит от высоты солнца над горизонтом, облачности и скорости ветра. Ночью, в пасмурную погоду, а также при ветре 12 м/с и более поправка равна нулю.
P - Атмосферное давление - приведенное к уровню моря атмосферное давление.
Po - Атмосферное давление - измеренное на уровне метеостанции атмосферное давление.
Tmin - Минимальная температура - минимум температуры воздуха на высоте 2 м над землей.
Tmax - Максимальная температура - максимум температуры воздуха на высоте 2 м над землей.
R - Количество осадков - Количество выпавших осадков за период времени, мм. При наведении курсора мыши на число - период времени, за который выпало указанное количество осадков.
R24 - Количество осадков - Количество выпавших осадков за 24 часа, мм.
S - Снежный покров - Высота снежного покрова, см. При наведении курсора мыши на число - состояние снежного покрова и степень покрытия местности в баллах.